Regional Weather Roundup
Issued by NWS Jackson, KY

Home | Current Version | Previous Version | Text Only | Print | Product List | Glossary Off
Versions: 1 2 3 4 5 6 7 8 9 10 11 12 13 14 15 16 17 18 19 20 21 22 23 24 25 26 27 28 29 30 31 32 33 34 35 36 37 38 39 40 41 42 43 44 45 46 47 48 49 50

000
ASUS43 KJKL 041210
RWRJKL

EAST KENTUCKY HOURLY WEATHER ROUNDUP
NATIONAL WEATHER SERVICE JACKSON KY
800 AM EDT MON MAY 04 2015

NOTE: "FAIR" INDICATES FEW OR NO CLOUDS BELOW 12,000 FEET WITH
NO SIGNIFICANT WEATHER AND/OR OBSTRUCTIONS TO VISIBILITY.

* THESE REPORTS ARE NOT UNDER NWS QUALITY CONTROL AND MAY NOT
  REPORT WEATHER SUCH AS PRECIPITATION AND FOG.

KYZ079-080-083-085-087-088-110-112-115-119-120-041300
...EASTERN KENTUCKY...

CITY           SKY/WX    TMP DP  RH WIND       PRES   REMARKS
JACKSON        SUNNY     59  46  62 CALM      30.23R
6HR MIN TEMP:  56; 6HR MAX TEMP:  61;

LONDON         SUNNY     55  48  77 CALM      30.23R
6HR MIN TEMP:  50; 6HR MAX TEMP:  56;

SOMERSET*      SUNNY     54  52  94 CALM      30.24R
MONTICELLO*    SUNNY     57  53  86 CALM      30.25R
6HR MIN TEMP:  48; 6HR MAX TEMP:  56;

MIDDLESBORO*   SUNNY     48  47  95 CALM      30.28R
6HR MIN TEMP:  46; 6HR MAX TEMP:  50;

HARLAN APT*    SUNNY     46  46 100 CALM      30.28R
HAZARD APT*    SUNNY     57  48  72 CALM      30.23R
BLACK MTN*       N/A     59  45  58 SW3         N/A
PIKEVILLE APT* SUNNY     57  45  62 S5        30.24R
BIG SANDY*     SUNNY     59  47  63 S6        30.23R
6HR MIN TEMP:  57; 6HR MAX TEMP:  60;

MOREHEAD APT*  SUNNY     57  48  72 CALM      30.22R
$$

KYZ035-036-041-042-044-050-067-078-099-041300
...CENTRAL KENTUCKY...

CITY           SKY/WX    TMP DP  RH WIND       PRES   REMARKS
MT STERLING*   SUNNY     61  50  67 SW7       30.22R
FLEMING/MASON* SUNNY     59  48  67 S7        30.20R
DANVILLE*      SUNNY     54  50  87 CALM      30.22R
RICHMOND*      SUNNY     61  48  63 S7        30.20R
LEXINGTON      MOSUNNY   59  50  72 S8        30.19R
6HR MIN TEMP:  55; 6HR MAX TEMP:  59;

FRANKFORT      SUNNY     57  50  77 S5        30.17R
6HR MIN TEMP:  53; 6HR MAX TEMP:  57;

$$

KYZ091>093-OHZ055-061-077-WVZ005-015-034-035-042-041300
...SOUTHERN OHIO/WEST VIRGINIA...

CITY           SKY/WX    TMP DP  RH WIND       PRES   REMARKS
COVINGTON      PTSUNNY   60  50  69 S8        30.16
COLUMBUS       MOSUNNY   59  48  67 CALM      30.15R
DAYTON         PTSUNNY   63  49  60 S10       30.14R
WILMINGTON     SUNNY     60  47  61 S8        30.15R
HUNTINGTON     SUNNY     54  49  83 CALM      30.20R
CHARLESTON     MOSUNNY   50  45  83 CALM      30.22R
PINEVILLE*     SUNNY     46  46  98 MISG      30.32S
BECKLEY        SUNNY     61  42  49 S7        30.29R
BLUEFIELD      SUNNY     61  43  51 W6        30.31R
$$

VAZ002-007-008-TNZ017-027-036-066-071-041300
...SOUTHWEST VIRGINIA/EAST TENNESSEE...

CITY           SKY/WX    TMP DP  RH WIND       PRES   REMARKS
WISE*          SUNNY     59  45  58 CALM      30.30S
JONESVILLE*    SUNNY     48  45  87 CALM      30.30R
ABINGDON*      SUNNY     58  49  74 E6        30.30R
BRISTOL        SUNNY     54  50  86 CALM      30.29R
KNOXVILLE      MOSUNNY   55  51  86 CALM      30.26R
OAK RIDGE      SUNNY     53  49  86 CALM      30.28R
CROSSVILLE     SUNNY     57  48  72 CALM      30.27R
NASHVILLE      MOSUNNY   57  52  83 SE3       30.21R
$$

...KEY TO REMARKS...
VSB - VISIBILITY IN MILES
WCI - WIND CHILL INDEX
HX  - HEAT INDEX

$$



USA.gov is the U.S. government's official web portal to all federal, state and local government web resources and services.